Temp
16 16 18 20 20 21 23 23 24 24 25 24 25 25 25 26 28 27 28 32 32 32 32 32 33 34 34 33 30 32 30 29 34 34 36 37 36 37 37 36 35 35 31 31 31
17 17 18 20 21 21 23 23 24 24 25 25 25 25 25 24 25 26 32 32 32 32 32 32 34 35 31 28 29 27 28 32 38 36 36 38 37 37 37 35 33 32 32 32 31
17 18 18 21 21 22 23 24 24 24 24 25 24 25 24 24 24 33 33 32 32 32 32 32 34 28 25 26 28 29 29 36 37 38 38 38 36 37 35 34 33 31 31 31 31
18 18 20 21 21 21 23 24 24 24 25 25 24 25 24 24 30 33 33 33 33 31 31 33 35 25 24 25 28 28 34 34 37 38 37 38 37 37 35 35 34 32 32 32 31
17 20 20 21 21 22 23 24 24 24 24 24 24 24 26 26 31 34 33 33 33 31 32 34 35 24 25 25 25 26 31 37 37 37 38 37 35 36 36 35 34 33 33 31 30
17 20 21 21 22 23 23 24 24 25 24 24 24 24 23 29 35 34 33 32 33 33 34 35 36 36 33 27 28 31 34 35 38 36 36 35 35 35 35 35 34 33 31 31 31
17 20 21 21 22 23 23 24 25 25 25 24 24 24 25 29 35 34 33 34 34 34 35 36 36 35 33 31 32 35 34 34 35 35 35 35 33 33 34 34 34 33 32 32 31
16 19 21 21 22 23 23 24 25 25 26 25 24 23 25 35 35 35 35 35 34 35 34 36 36 35 34 30 29 33 30 30 34 35 33 32 30 31 33 32 33 33 33 33 32
16 18 21 22 22 23 24 25 25 26 26 25 25 24 30 35 35 36 35 35 35 36 34 34 34 31 32 24 26 29 30 30 31 34 33 32 28 30 32 32 33 32 32 32 31
16 18 21 22 22 23 24 25 26 26 27 24 25 27 30 35 37 36 35 36 33 33 31 31 25 26 28 28 29 30 32 33 32 35 34 30 31 33 32 33 33 32 32 32 31
15 19 21 22 22 22 24 25 25 25 25 29 31 33 37 37 37 36 36 37 32 28 26 26 26 26 28 34 35 36 34 30 35 38 35 33 33 33 33 32 34 32 31 31 31
14 18 21 22 22 22 21 22 30 32 31 30 33 35 36 38 36 36 37 33 28 25 26 27 27 31 34 35 35 36 36 36 38 39 38 33 31 34 34 35 35 34 33 33 32
13 19 22 22 22 22 23 26 32 32 31 34 35 35 37 37 36 36 36 29 25 25 27 26 30 33 34 34 36 37 36 35 36 39 37 35 31 35 36 36 36 35 34 34 34
13 20 21 21 20 23 26 31 32 32 28 34 35 36 38 37 36 39 37 29 23 25 28 28 32 33 35 35 37 36 38 38 40 35 33 35 31 35 36 36 36 37 35 35 34
14 20 20 20 17 22 32 32 34 34 27 37 36 40 38 36 38 38 38 37 28 29 29 32 33 36 37 36 38 38 39 38 38 34 32 30 28 31 36 35 35 35 35 35 35
17 20 19 19 19 28 31 33 34 29 30 37 38 37 36 37 37 38 38 38 34 33 31 34 36 37 37 40 41 40 39 37 33 31 29 30 30 31 33 35 35 35 36 36 35
18 19 19 19 25 28 30 31 29 29 37 37 36 37 36 36 37 37 36 35 34 34 33 34 35 37 39 38 39 40 36 32 31 30 30 32 32 32 34 36 38 36 35 36 35
18 19 21 23 26 27 28 29 29 35 36 36 37 37 36 37 37 38 34 35 34 33 31 29 31 37 40 39 39 37 36 32 34 34 32 34 33 35 36 37 38 39 38 37 36
19 20 21 26 27 26 26 28 32 30 32 33 35 37 36 38 36 37 35 30 32 32 32 30 32 36 41 41 40 38 35 37 35 35 29 34 36 37 37 37 37 39 37 38 35
16 23 26 29 28 27 26 28 33 35 35 35 32 38 36 36 36 36 34 35 32 31 29 32 32 34 40 40 39 40 38 34 31 34 33 33 34 32 35 35 37 40 35 33 33
16 24 32 30 29 27 27 31 35 35 34 36 37 36 36 35 35 36 35 32 31 32 31 31 31 34 36 38 37 36 34 35 33 32 31 32 30 35 35 36 37 35 35 33 34
21 27 32 32 27 28 29 32 32 36 39 38 38 35 33 30 32 34 33 34 30 30 32 33 30 28 34 39 41 40 38 35 30 32 32 30 32 36 39 37 34 33 33 33 33
24 30 33 33 28 29 32 34 35 36 38 38 39 32 32 31 29 29 31 34 35 36 35 34 32 33 34 35 36 38 39 39 35 32 33 31 33 37 34 33 33 32 32 31 31
23 28 30 30 31 31 32 33 35 39 38 38 37 31 30 29 27 25 28 34 35 36 32 35 35 34 33 34 36 37 37 38 37 32 32 33 31 32 31 32 31 31 30 30 29
24 29 31 28 30 31 32 33 34 36 38 39 38 37 35 28 29 27 31 34 34 35 39 37 35 36 37 38 38 38 37 37 36 36 35 33 30 30 30 30 31 30 30 30 29
23 27 30 31 31 32 31 32 34 36 37 38 37 38 37 36 36 35 36 36 36 36 37 36 33 35 38 36 36 36 37 37 37 36 32 32 30 31 31 30 29 29 29 29 29
28 28 27 30 34 32 32 33 35 37 37 38 37 37 36 37 39 36 37 36 37 35 35 37 33 32 34 35 36 34 36 37 35 35 32 30 31 30 30 30 29 28 29 29 29
Height
791 790 787 786 783 782 780 780 779 778 776 775 774 772 769 766 761 759 757 754 753 753 753 750 746 746 745 743 751 751 780 785 762 760 753 732 741 732 731 742 741 742 754 763 771
791 789 787 785 783 781 779 779 778 777 775 774 772 771 769 766 760 754 748 751 752 752 751 747 741 739 748 757 758 769 786 771 733 734 741 730 736 738 742 748 756 757 761 767 772
790 787 786 785 782 780 778 778 778 776 774 772 771 770 768 766 763 745 745 748 750 750 749 747 744 756 768 758 759 764 775 739 733 726 726 729 735 730 744 759 755 764 764 768 773
788 786 785 784 781 779 778 777 777 775 773 771 770 769 768 766 775 743 744 747 748 747 747 745 742 770 789 792 772 779 744 743 731 726 728 732 731 739 740 748 745 754 760 767 772
787 785 784 782 780 778 777 776 775 774 772 771 769 769 767 766 752 742 744 745 746 744 744 743 747 773 791 791 782 780 756 732 728 725 727 729 743 744 744 740 744 753 760 766 770
786 784 782 780 779 778 776 775 774 772 771 770 769 769 768 770 740 740 742 744 743 747 742 741 744 742 756 774 771 755 747 742 729 734 734 740 745 741 747 741 748 754 762 764 767
784 783 781 779 778 777 775 773 772 771 770 770 770 769 768 754 739 739 741 742 743 745 740 742 741 742 746 759 747 738 755 747 742 737 744 738 760 760 747 745 752 756 761 762 764
782 781 780 778 777 775 773 772 771 770 769 770 770 770 765 738 737 738 740 740 742 741 741 737 737 738 749 746 764 755 762 783 745 742 746 751 785 756 746 751 754 755 758 759 761
781 780 778 776 775 773 771 771 769 767 768 769 770 768 758 736 735 736 738 738 738 736 738 735 736 752 755 787 793 774 788 783 768 742 748 755 779 754 746 750 754 754 757 759 760
779 778 776 775 774 771 770 769 767 766 767 768 768 773 746 736 731 733 737 739 741 738 743 744 758 771 773 789 810 800 784 773 771 743 748 764 766 750 745 749 754 752 755 758 759
777 776 775 773 772 770 770 769 769 769 765 756 746 741 730 728 730 733 735 737 744 755 784 772 778 792 775 759 759 757 761 779 748 725 745 755 758 751 742 748 748 751 753 755 756
776 774 773 771 770 770 771 769 753 754 756 740 734 734 728 725 737 732 734 749 768 786 780 784 788 755 750 745 752 748 751 752 731 720 726 753 774 747 738 736 737 743 748 748 750
773 772 771 769 769 769 767 758 751 749 758 734 723 729 724 725 735 734 734 760 785 790 784 796 762 745 749 744 745 739 748 750 751 726 732 748 775 754 736 727 728 730 733 738 742
771 769 769 768 772 767 762 751 752 752 780 746 730 725 718 720 737 719 727 754 786 789 784 782 747 750 747 749 736 755 724 730 732 757 785 749 807 762 746 741 735 728 732 733 735
768 767 767 769 767 765 752 749 750 750 823 723 723 702 707 728 721 722 717 731 775 767 773 761 748 747 739 737 721 738 714 729 736 763 775 786 810 779 745 756 746 733 729 727 725
765 765 765 768 766 756 752 749 750 789 805 732 713 723 728 724 724 718 721 718 728 753 752 742 722 726 726 710 709 705 721 738 752 771 808 787 795 785 767 751 741 730 722 719 719
763 763 764 764 760 756 752 752 789 801 725 737 735 725 730 737 732 731 735 745 759 771 773 752 739 719 711 729 710 716 743 792 809 810 808 762 788 774 741 728 723 725 721 714 711
761 760 760 758 759 758 756 770 801 751 742 721 723 724 741 728 731 725 744 755 744 756 779 795 787 729 704 719 731 732 742 785 802 800 798 758 789 761 724 715 712 709 711 710 710
760 759 758 752 758 763 768 790 770 763 745 742 734 737 738 724 732 733 742 763 748 751 779 788 773 719 704 704 712 733 756 723 758 758 806 777 755 734 722 724 721 714 713 712 716
761 759 750 749 756 762 776 778 751 731 728 733 759 721 741 735 736 736 747 737 751 749 753 761 780 733 713 704 705 715 711 763 766 793 811 791 776 780 747 741 723 716 722 719 715
763 757 736 745 755 763 782 761 739 729 720 728 727 732 734 746 738 735 743 756 749 740 750 755 768 749 726 730 739 739 751 742 750 769 807 811 801 733 737 729 724 724 720 718 715
761 759 737 742 764 759 766 747 731 723 703 710 710 724 740 751 753 750 749 736 735 743 757 744 758 789 753 710 699 712 729 741 787 785 774 787 790 724 715 720 727 728 723 719 715
758 741 737 739 770 761 747 741 729 723 714 712 712 724 724 740 768 768 755 723 711 723 734 733 758 782 774 744 722 728 720 719 736 753 773 799 783 725 730 728 733 733 728 725 722
760 756 743 740 737 746 748 744 737 705 710 707 713 729 738 752 753 790 779 726 709 714 716 710 738 757 784 763 739 744 732 724 735 777 772 770 776 756 749 744 739 735 732 729 727
757 745 732 756 747 745 741 738 738 730 705 703 714 714 728 763 761 771 751 729 720 709 707 715 749 737 732 728 727 729 734 733 743 739 759 761 773 763 752 748 742 736 733 732 731
762 755 734 734 732 740 740 740 736 721 713 717 721 712 709 723 723 736 722 724 725 715 715 711 753 737 740 732 731 740 730 729 728 733 751 755 768 746 741 740 743 741 738 738 734
751 746 743 731 728 739 738 733 726 712 710 705 710 713 716 713 694 693 693 700 702 718 722 720 742 756 766 740 741 765 740 730 732 731 745 772 759 745 750 747 748 745 739 738 735
Wind_Speed
12 12 12 12 10 8 8 9 9 8 8 10 11 15 18 20 22 17 9 5 7 6 8 9 12 11 11 6 5 2 4 5 3 9 5 8 10 10 8 10 12 5 17 23 30
11 12 11 11 10 9 8 9 9 9 9 11 13 16 18 20 23 13 13 12 6 5 6 12 8 6 4 2 2 3 3 6 6 6 9 9 12 9 8 16 19 19 21 28 28
12 11 11 11 10 9 9 8 9 9 10 11 14 16 18 19 6 4 11 10 5 5 9 14 15 13 12 7 3 2 3 5 8 7 9 13 12 7 9 12 20 22 19 17 21
12 12 11 11 10 10 9 9 10 9 10 12 15 17 20 6 3 3 7 9 5 7 10 12 5 6 5 6 14 9 11 12 4 3 2 9 11 10 16 13 19 20 18 13 15
12 12 11 10 11 11 9 10 10 10 10 12 14 16 8 4 8 3 9 9 8 8 11 10 5 12 7 13 8 8 17 8 10 1 2 14 10 4 16 18 19 19 16 13 10
13 12 10 11 12 11 9 10 11 11 10 11 13 13 3 6 6 3 9 8 10 10 18 4 2 3 5 14 17 7 11 5 2 10 7 8 6 4 13 18 16 16 11 11 11
13 13 10 11 12 11 10 11 12 11 11 11 11 9 5 14 3 3 10 10 10 11 10 6 15 5 4 5 12 3 3 6 4 3 3 4 4 3 3 14 15 13 10 10 11
13 13 11 11 12 12 12 12 12 11 11 10 9 3 7 12 8 9 9 15 14 8 14 19 6 6 12 11 11 6 4 2 5 3 0 7 6 7 6 1 12 13 11 9 9
14 13 12 11 11 13 13 12 12 13 11 8 6 4 8 4 5 9 9 9 16 10 11 17 8 2 6 5 4 5 2 5 5 5 8 3 6 9 5 4 7 9 9 9 8
15 13 12 11 12 14 12 11 9 12 7 5 10 6 8 8 8 7 9 12 11 11 8 10 5 4 2 4 2 3 4 8 7 12 12 7 5 6 8 8 10 11 10 9 9
15 13 11 10 12 13 10 6 3 3 6 10 8 6 5 7 9 8 11 6 12 9 7 7 5 5 10 4 13 7 11 18 15 13 13 15 9 10 11 9 13 12 10 10 10
15 12 10 10 13 11 6 4 10 15 7 18 21 18 27 11 4 5 7 5 7 6 12 4 7 11 11 13 15 15 5 5 5 9 4 17 6 15 15 11 15 17 14 13 10
15 11 9 11 12 11 13 20 11 20 4 11 14 9 12 9 6 7 12 16 17 11 19 10 11 16 14 16 4 4 3 1 6 5 14 10 13 9 10 7 13 18 18 15 16
14 9 9 8 6 6 9 18 19 19 4 6 10 11 12 8 5 14 20 15 10 17 14 11 8 5 11 15 8 3 6 4 10 7 3 3 3 4 5 5 7 7 17 16 16
13 9 9 8 9 5 9 14 11 6 4 11 14 6 9 10 1 8 26 14 17 18 7 8 4 1 9 7 10 6 6 12 10 3 5 4 5 8 6 6 8 9 13 12 16
11 9 8 4 10 15 18 14 6 2 6 8 8 9 8 8 12 11 8 8 1 9 9 10 7 5 6 6 5 8 7 10 5 4 2 10 6 4 4 7 7 8 9 10 12
10 9 11 10 5 13 14 9 1 4 10 6 11 11 11 8 13 12 11 7 5 1 5 7 7 7 12 10 9 2 5 2 2 3 5 11 2 8 8 7 6 13 9 13 13
9 11 10 24 8 11 11 1 4 8 4 8 6 12 12 11 13 9 5 5 5 6 2 3 6 4 6 4 1 6 5 4 3 1 2 12 5 4 6 6 5 2 6 9 8
4 5 8 22 19 9 2 3 3 4 3 9 20 11 12 13 4 9 7 7 5 8 3 0 5 7 3 5 1 7 3 6 3 8 5 4 2 5 6 5 5 3 8 6 11
1 6 12 16 13 8 0 5 5 6 6 7 15 9 10 7 6 10 10 4 6 3 8 5 7 8 4 5 9 4 5 7 5 2 4 2 5 6 5 7 6 2 8 8 8
2 3 10 20 21 2 3 6 5 2 21 10 10 7 9 9 8 2 11 6 3 8 6 5 6 9 3 1 5 5 6 5 2 5 5 5 6 6 6 7 6 8 8 8 8
5 3 24 26 4 3 5 5 7 21 10 6 5 1 6 6 10 9 6 11 16 20 14 11 3 2 6 4 5 3 4 4 5 8 1 4 3 6 1 7 11 11 9 9 8
3 1 18 16 4 7 5 15 20 21 15 6 4 9 3 4 6 11 13 7 15 4 4 7 3 3 12 8 8 2 3 4 2 2 2 4 2 13 9 16 8 9 8 6 8
3 2 2 4 8 9 5 11 18 12 7 8 8 12 6 4 7 7 10 6 12 3 11 5 3 4 3 7 2 5 7 5 2 3 3 1 6 8 10 10 10 10 10 9 8
3 4 6 5 9 11 13 11 16 15 8 5 4 7 9 8 4 10 14 11 12 8 3 2 2 5 4 6 5 4 7 8 5 5 3 4 12 6 7 8 7 8 8 10 10
3 4 5 6 9 11 12 12 16 16 4 3 6 11 11 4 5 9 7 2 5 7 5 5 3 5 2 9 9 7 8 10 8 6 9 15 9 7 8 9 10 9 9 9 8
7 7 4 8 10 7 7 11 13 4 8 9 9 6 10 10 4 5 6 9 10 10 5 1 4 3 3 6 7 6 6 3 7 8 13 9 6 8 8 8 7 7 9 8 8
Wind_Direction
342 336 341 339 337 334 311 299 301 301 304 312 312 310 314 314 312 309 263 264 206 264 306 292 256 249 243 234 79 53 281 311 303 105 136 125 105 100 143 85 50 122 138 143 152
337 333 335 331 334 328 308 299 300 293 304 307 311 313 318 325 321 270 256 241 253 270 250 264 322 309 67 60 75 103 161 235 82 137 149 158 128 126 130 109 94 104 120 143 150
332 330 329 327 329 320 304 301 293 292 300 304 313 314 322 327 281 222 199 214 198 233 237 278 284 61 15 328 62 22 229 281 52 48 12 137 118 118 126 124 129 132 139 149 147
326 326 325 325 322 313 307 298 289 290 295 307 312 318 323 316 349 171 173 172 184 228 257 277 255 54 91 307 325 316 264 257 66 101 27 99 126 114 95 122 131 134 141 149 157
322 319 321 321 313 309 309 295 285 285 299 308 313 328 343 251 250 230 170 163 201 220 244 278 2 141 157 155 256 280 275 311 149 128 42 75 45 324 105 109 121 130 141 152 167
321 316 318 316 308 310 307 291 280 285 298 306 314 333 306 266 186 154 169 183 225 246 258 272 223 298 155 176 192 210 258 7 168 85 62 87 54 48 91 114 116 129 149 168 170
319 314 313 310 307 311 301 285 278 286 293 300 315 338 267 247 167 145 178 214 250 282 312 315 331 332 291 228 292 138 74 324 55 141 108 98 28 319 50 127 136 141 158 181 169
318 314 309 305 307 304 293 282 281 284 286 298 309 308 253 284 252 193 223 239 230 238 270 282 5 303 16 2 357 350 61 18 253 168 145 93 255 269 143 167 146 155 167 174 178
317 314 303 301 306 297 291 285 280 278 283 291 301 212 264 237 222 219 221 257 258 232 35 32 53 63 95 125 355 303 52 248 307 190 165 132 259 251 252 164 170 152 158 169 178
313 309 298 300 300 295 295 287 278 287 284 257 261 295 258 241 187 191 221 251 29 29 24 17 73 15 197 168 26 352 263 257 243 191 179 141 230 251 215 204 185 155 164 176 179
310 303 293 292 292 298 306 309 288 273 236 217 200 233 207 186 125 204 205 218 48 55 23 342 10 235 264 222 228 231 211 233 236 169 157 189 183 205 212 208 183 160 169 174 182
309 301 287 283 284 290 293 254 263 334 284 222 248 252 272 133 186 223 162 84 43 347 340 282 252 250 248 291 261 253 307 351 98 168 153 175 118 209 205 176 171 166 176 181 182
306 294 277 276 286 284 236 239 279 323 299 288 216 230 248 144 229 234 160 91 54 296 281 267 254 313 303 289 299 241 228 282 206 59 64 99 179 168 201 176 181 173 179 177 184
304 283 268 284 297 295 243 269 261 273 300 259 177 228 235 154 228 233 171 122 170 242 246 239 268 258 272 252 270 47 239 350 148 71 145 72 138 279 201 119 156 196 183 182 187
299 272 260 235 293 278 280 320 278 233 288 160 182 201 170 180 190 204 179 178 161 214 179 254 282 346 168 244 243 230 248 124 105 92 82 28 89 259 147 190 197 219 178 187 186
288 262 253 264 261 269 312 332 283 263 241 185 142 172 149 196 247 172 205 206 169 193 241 270 274 247 254 289 219 268 279 81 57 127 80 188 157 264 217 196 205 196 200 187 189
277 251 224 210 208 339 340 281 222 234 325 139 158 161 197 181 241 187 181 214 210 185 338 323 283 291 278 281 276 151 320 126 255 336 227 153 137 231 205 195 208 188 212 180 197
270 246 237 239 240 334 338 293 252 297 310 314 224 181 205 204 221 208 133 184 28 63 97 19 327 193 214 220 299 286 189 177 246 277 272 135 157 249 187 193 244 265 269 222 214
259 269 251 250 233 265 349 228 235 196 9 302 314 198 206 215 144 250 164 151 180 170 201 45 270 276 37 337 163 289 352 249 271 119 70 224 339 20 172 191 244 217 23 10 54
154 219 240 232 192 195 120 260 244 347 258 144 272 180 222 166 152 234 127 153 114 282 86 274 292 305 316 225 266 225 261 351 347 46 83 34 168 203 187 212 151 149 66 67 65
308 248 213 173 162 190 218 250 312 328 254 225 352 332 45 358 299 150 93 117 77 324 161 222 214 300 4 310 99 354 346 1 102 93 120 177 276 228 156 167 112 88 85 75 56
275 251 155 164 161 210 228 256 269 283 273 244 269 81 91 73 36 326 19 159 155 190 251 204 149 241 256 79 50 271 53 62 96 318 310 112 274 78 212 53 67 65 56 39 27
258 200 157 178 200 235 242 266 264 275 275 326 289 62 356 109 108 13 339 301 291 186 168 204 199 117 313 352 329 330 127 130 11 71 334 113 253 47 33 65 42 53 30 26 36
288 186 178 215 255 264 268 266 278 271 275 299 310 100 93 54 126 64 267 264 263 268 245 111 274 113 164 211 206 323 356 5 134 111 275 131 103 35 46 52 31 28 25 39 30
245 272 173 186 231 246 264 280 294 282 234 249 262 262 215 162 127 189 243 257 251 202 250 174 217 293 11 346 330 339 347 349 3 305 146 73 92 84 68 53 24 22 46 33 14
291 345 338 284 193 217 245 263 280 290 296 199 203 270 280 342 195 193 159 289 167 218 218 216 268 18 357 4 20 358 328 303 267 45 92 91 84 93 60 47 37 49 40 24 3
308 322 273 277 180 200 240 265 284 315 295 303 307 11 51 345 329 333 313 287 197 171 222 75 117 84 309 308 334 330 336 33 74 53 112 93 126 79 53 43 49 38 33 10 359